User: anonymous   Login
Location: Petruro
(41.0333°N, 14.7833°E)
Time: 02:08:07
(UTC+00:00)
Language:

IRS-1C - Orbit

View from above orbital plane
View from above orbital plane
View from above satellite
View from above satellite

Ground track
Ground track

The orbit data is extracted from the following two-line orbital elements,

1 23751U 95072A   21260.59495736  .00000019  00000-0  28793-4 0  9993
2 23751  98.8789 218.6863 0000901  82.3481 277.7798 14.22667875335252
Epoch (UTC): 17 September 2021 14:16:44
Eccentricity: 0.0000901
inclination: 98.8789°
perigee height: 815 km
apogee height: 817 km
right ascension of ascending node: 218.6863°
argument of perigee: 82.3481°
revolutions per day: 14.22667875
mean anomaly at epoch: 277.7798°
orbit number at epoch: 33525

The dashed part of the orbit path shows where the satellite is in the earth's shadow,  

DLR